Toms River, NJ

4:29 AM EST on November 19, 2017 (GMT -0500)
Miller

Weather History for KMJX - February, 2014

Change the Weather History Date:

Monday, February 10, 2014

  Actual Average Record
Temperature  
Mean Temperature 16 °F -  
Max Temperature 26 °F 38 °F 68 °F (1990)
Min Temperature 6 °F 17 °F -1 °F (1979)
Degree Days  
Heating Degree Days 49    
Moisture  
Dew Point 12 °F    
Average Humidity 72    
Maximum Humidity 100    
Minimum Humidity 47    
Precipitation  
Precipitation 0.00 in - - ()
Sea Level Pressure  
Sea Level Pressure 30.16 in    
Wind  
Wind Speed 4 mph (NW)    
Max Wind Speed 12 mph    
Max Gust Speed 16 mph    
Visibility 9 miles    
Events      
Averages and records for this station are not official NWS values.
T = Trace of Precipitation, MM = Missing Value Source: NWS Daily Summary

Daily Weather History Graph

Daily Weather History Graph

Search for Another Location

Airport or City:

Trip Planner

Search our weather history database for the weather conditions in past years. The results will help you decide how hot, cold, wet, or windy it might be!

Date:

Astronomy

Feb. 10, 2014 Rise Set
Actual Time 6:56 AM EST 5:27 PM EST
Civil Twilight 6:28 AM EST 5:55 PM EST
Nautical Twilight 5:56 AM EST 6:27 PM EST
Astronomical Twilight 5:24 AM EST 6:58 PM EST
Moon 1:54 PM EST (2/10) 3:47 AM EST (2/10)
Length of Visible Light 11h 27m
Length of Day
10h 31m
Waxing Gibbous, 84% of the Moon is Illuminated
Feb 10
Waxing Gibbous
Feb 14
Full
Feb 22
Last Quarter
Mar 1
New
Mar 8
First Quarter

Hourly Weather History & Observations

Time (EST) Temp. Windchill Dew Point Humidity Pressure Visibility Wind Dir Wind Speed Gust Speed Precip Events Conditions
12:15 AM 21.2 °F - 21.2 °F 100% 30.03 in 9.0 mi Calm Calm - N/A   Scattered Clouds
12:35 AM 21.2 °F - 19.4 °F 93% 30.03 in 8.0 mi Calm Calm - N/A   Clear
12:55 AM 21.2 °F - 21.2 °F 100% 30.03 in 5.0 mi Calm Calm - N/A   Clear
1:15 AM 21.2 °F - 21.2 °F 100% 30.03 in 5.0 mi Calm Calm - N/A   Clear
1:35 AM 19.4 °F - 15.8 °F 86% 30.04 in 4.0 mi Calm Calm - N/A   Clear
1:55 AM 15.8 °F - 15.8 °F 100% 30.04 in 1.5 mi Calm Calm - N/A   Clear
2:15 AM 17.6 °F - 17.6 °F 100% 30.03 in 1.5 mi Calm Calm - N/A   Clear
2:35 AM 19.4 °F - 17.6 °F 93% 30.03 in 6.0 mi Calm Calm - N/A   Clear
2:55 AM 21.2 °F - 21.2 °F 100% 30.04 in 7.0 mi Calm Calm - N/A   Clear
3:15 AM 21.2 °F - 19.4 °F 93% 30.05 in 8.0 mi Calm Calm - N/A   Clear
3:35 AM 23.0 °F - 21.2 °F 93% 30.05 in 10.0 mi Calm Calm - N/A   Mostly Cloudy
3:55 AM 23.0 °F 18.4 °F 21.2 °F 93% 30.05 in 10.0 mi NW 3.5 mph - N/A   Mostly Cloudy
4:15 AM 24.8 °F 19.1 °F 17.6 °F 74% 30.06 in 10.0 mi NW 4.6 mph - N/A   Mostly Cloudy
4:35 AM 23.0 °F 11.7 °F 21.2 °F 93% 30.06 in 10.0 mi NW 11.5 mph - N/A   Partly Cloudy
4:55 AM 21.2 °F 10.9 °F 17.6 °F 86% 30.08 in 10.0 mi NW 9.2 mph - N/A   Clear
5:15 AM 21.2 °F 11.7 °F 17.6 °F 86% 30.10 in 10.0 mi WNW 8.1 mph - N/A   Clear
5:35 AM 21.2 °F 11.7 °F 19.4 °F 93% 30.10 in 10.0 mi NW 8.1 mph - N/A   Clear
5:55 AM 19.4 °F 9.5 °F 14.0 °F 80% 30.11 in 10.0 mi NW 8.1 mph - N/A   Clear
6:15 AM 19.4 °F 9.5 °F 15.8 °F 86% 30.12 in 10.0 mi NW 8.1 mph - N/A   Clear
6:35 AM 17.6 °F 5.7 °F 14.0 °F 86% 30.12 in 10.0 mi NW 10.4 mph - N/A   Clear
6:55 AM 19.4 °F 7.9 °F 14.0 °F 80% 30.13 in 10.0 mi NW 10.4 mph - N/A   Clear
7:15 AM 19.4 °F 8.6 °F 15.8 °F 86% 30.13 in 10.0 mi NNW 9.2 mph - N/A   Clear
7:35 AM 19.4 °F 9.5 °F 15.8 °F 86% 30.14 in 10.0 mi NNW 8.1 mph - N/A   Clear
7:55 AM 19.4 °F 9.5 °F 15.8 °F 86% 30.17 in 10.0 mi NW 8.1 mph - N/A   Clear
8:15 AM 19.4 °F 8.6 °F 14.0 °F 80% 30.17 in 10.0 mi NW 9.2 mph - N/A   Clear
8:35 AM 21.2 °F 10.1 °F 15.8 °F 80% 30.17 in 10.0 mi NW 10.4 mph 16.1 mph N/A   Clear
8:55 AM 21.2 °F 9.5 °F 12.2 °F 68% 30.17 in 10.0 mi NW 11.5 mph 16.1 mph N/A   Clear
9:15 AM 21.2 °F 12.6 °F 14.0 °F 74% 30.17 in 7.0 mi NNW 6.9 mph - N/A   Clear
9:35 AM 21.2 °F 10.1 °F 12.2 °F 68% 30.17 in 10.0 mi NNW 10.4 mph 16.1 mph N/A   Clear
9:55 AM 23.0 °F 17.0 °F 10.4 °F 59% 30.18 in 10.0 mi NW 4.6 mph - N/A   Clear
10:15 AM 23.0 °F 14.7 °F 12.2 °F 63% 30.19 in 10.0 mi NW 6.9 mph - N/A   Clear
10:35 AM 24.8 °F 17.9 °F 10.4 °F 54% 30.19 in 10.0 mi NNW 5.8 mph - N/A   Clear
10:55 AM 24.8 °F 20.5 °F 12.2 °F 59% 30.19 in 10.0 mi NNW 3.5 mph - N/A   Clear
11:15 AM 24.8 °F 17.9 °F 10.4 °F 54% 30.18 in 10.0 mi NW 5.8 mph - N/A   Clear
11:35 AM 24.8 °F 17.9 °F 10.4 °F 54% 30.18 in 10.0 mi NW 5.8 mph - N/A   Clear
11:55 AM 26.6 °F 17.5 °F 12.2 °F 55% 30.17 in 10.0 mi WNW 9.2 mph - N/A   Clear
12:15 PM 26.6 °F 19.1 °F 12.2 °F 55% 30.17 in 10.0 mi NNW 6.9 mph - N/A   Clear
12:35 PM 26.6 °F 17.5 °F 10.4 °F 51% 30.16 in 10.0 mi NW 9.2 mph - N/A   Clear
12:55 PM 26.6 °F 20.0 °F 12.2 °F 55% 30.16 in 10.0 mi NW 5.8 mph - N/A   Clear
1:15 PM 26.6 °F 19.1 °F 14.0 °F 59% 30.15 in 10.0 mi WNW 6.9 mph - N/A   Clear
1:35 PM 26.6 °F 18.2 °F 10.4 °F 51% 30.14 in 10.0 mi WNW 8.1 mph - N/A   Clear
1:55 PM 26.6 °F 21.2 °F 10.4 °F 51% 30.15 in 10.0 mi NNW 4.6 mph - N/A   Clear
2:15 PM 26.6 °F 20.0 °F 10.4 °F 51% 30.15 in 10.0 mi WNW 5.8 mph - N/A   Clear
2:35 PM 26.6 °F 18.2 °F 8.6 °F 47% 30.15 in 10.0 mi WNW 8.1 mph - N/A   Clear
2:55 PM 26.6 °F 20.0 °F 10.4 °F 51% 30.15 in 10.0 mi WNW 5.8 mph - N/A   Clear
3:15 PM 26.6 °F 22.6 °F 10.4 °F 51% 30.16 in 10.0 mi NW 3.5 mph - N/A   Clear
3:35 PM 26.6 °F 20.0 °F 8.6 °F 47% 30.16 in 10.0 mi WNW 5.8 mph - N/A   Clear
3:55 PM 26.6 °F 20.0 °F 8.6 °F 47% 30.17 in 10.0 mi NW 5.8 mph - N/A   Clear
4:15 PM 26.6 °F 21.2 °F 10.4 °F 51% 30.17 in 10.0 mi WNW 4.6 mph - N/A   Clear
4:35 PM 26.6 °F 21.2 °F 8.6 °F 47% 30.17 in 10.0 mi NW 4.6 mph - N/A   Clear
4:55 PM 26.6 °F 22.6 °F 8.6 °F 47% 30.18 in 10.0 mi NW 3.5 mph - N/A   Clear
5:15 PM 26.6 °F 22.6 °F 10.4 °F 51% 30.19 in 10.0 mi WNW 3.5 mph - N/A   Clear
5:35 PM 24.8 °F - 8.6 °F 50% 30.20 in 10.0 mi Calm Calm - N/A   Clear
5:55 PM 24.8 °F - 8.6 °F 50% 30.21 in 10.0 mi Calm Calm - N/A   Clear
6:15 PM 23.0 °F - 8.6 °F 54% 30.22 in 10.0 mi Calm Calm - N/A   Clear
6:35 PM 19.4 °F 14.3 °F 8.6 °F 63% 30.23 in 10.0 mi West 3.5 mph - N/A   Clear
6:55 PM 17.6 °F 10.7 °F 6.8 °F 63% 30.23 in 10.0 mi West 4.6 mph - N/A   Clear
7:15 PM 19.4 °F 12.8 °F 10.4 °F 68% 30.23 in 10.0 mi WNW 4.6 mph - N/A   Clear
7:35 PM 19.4 °F 12.8 °F 8.6 °F 63% 30.24 in 10.0 mi WNW 4.6 mph - N/A   Clear
7:55 PM 15.8 °F 10.2 °F 5.0 °F 62% 30.24 in 10.0 mi West 3.5 mph - N/A   Clear
8:15 PM 15.8 °F 10.2 °F 10.4 °F 79% 30.25 in 10.0 mi West 3.5 mph - N/A   Clear
8:35 PM 15.8 °F 8.6 °F 5.0 °F 62% 30.25 in 10.0 mi West 4.6 mph - N/A   Clear
8:55 PM 15.8 °F 8.6 °F 8.6 °F 73% 30.26 in 10.0 mi WNW 4.6 mph - N/A   Clear
9:15 PM 17.6 °F 10.7 °F 8.6 °F 68% 30.27 in 10.0 mi WNW 4.6 mph - N/A   Clear
9:35 PM 15.8 °F - 6.8 °F 68% 30.27 in 10.0 mi Calm Calm - N/A   Clear
9:55 PM 12.2 °F - 8.6 °F 85% 30.28 in 10.0 mi Calm Calm - N/A   Clear
10:15 PM 12.2 °F 6.1 °F 5.0 °F 73% 30.28 in 10.0 mi WNW 3.5 mph - N/A   Clear
10:35 PM 10.4 °F - 8.6 °F 92% 30.28 in 10.0 mi Calm Calm - N/A   Clear
10:55 PM 8.6 °F - 6.8 °F 92% 30.29 in 10.0 mi Calm Calm - N/A   Clear
11:15 PM 8.6 °F - 3.2 °F 79% 30.29 in 10.0 mi Calm Calm - N/A   Clear
11:35 PM 6.8 °F - 3.2 °F 85% 30.29 in 10.0 mi Calm Calm - N/A   Clear
11:55 PM 6.8 °F - 3.2 °F 85% 30.30 in 10.0 mi Calm Calm - N/A   Clear